Notices

What's New in latest Release from April 7th, 2021:

- Updated Glossary, including Speed of Maximum Gust, and Total Hourly Precipitation

- Updated national and regional climate services offices contacts and prices information

- Addition of station inventory lists for 1981-2010, 1971-2000, and 1961-1990 Normals.

If you haven't already, please take our survey and provide feedback about our website: https://eccc.sondage-survey.ca/f/LanguageSelection.aspx?s=442ca660-fcf1-47c0-95a9-59707d6fd709

Hourly Data Report for July 11, 2018

TORONTO CITY
ONTARIO
Current Station Operator: ECCC - MSC

43°40'00.000" N
79°24'00.000" W
112.50 m
6158355
71508
XTO

Download Data

Hourly Data (July 2018)
Hourly Data Report for July 11, 2018
TIME
LST
Temp Definition
°C
Dew Point Definition
°C
Rel Hum Definition
%
Precip. Amount Definition
mm

Wind Dir Definition
10's deg

Wind Spd Definition
km/h
Visibility Definition
km
Stn Press Definition
kPa
Hmdx Definition


Wind Chill Definition


Weather Definition


00:00 21.2 10.1 49 0.0 LegendMM LegendMM   100.35     LegendNANA
01:00 20.4 10.2 52 0.0 LegendMM LegendMM   100.36     LegendNANA
02:00 19.7 11.1 58 0.0 LegendMM LegendMM   100.35     LegendNANA
03:00 19.2 11.1 59 0.0 LegendMM LegendMM   100.40     LegendNANA
04:00 18.4 11.5 64 0.0 LegendMM LegendMM   100.48     LegendNANA
05:00 18.9 11.5 62 0.0 LegendMM LegendMM   100.53     LegendNANA
06:00 19.1 11.9 63 0.0 LegendMM LegendMM   100.56     LegendNANA
07:00 20.9 10.2 50 0.0 LegendMM LegendMM   100.62     LegendNANA
08:00 22.6 9.3 43 0.0 LegendMM LegendMM   100.63     LegendNANA
09:00 24.2 7.0 33 0.0 LegendMM LegendMM   100.65     LegendNANA
10:00 24.7 6.5 31 0.0 LegendMM LegendMM   100.66 25   LegendNANA
11:00 25.9 7.4 31 0.0 LegendMM LegendMM   100.68 26   LegendNANA
12:00 24.1 8.7 37 0.0 LegendMM LegendMM   100.68 25   LegendNANA
13:00 25.5 9.0 35 0.0 LegendMM LegendMM   100.66 26   LegendNANA
14:00 25.0 8.7 35 0.0 LegendMM LegendMM   100.63 26   LegendNANA
15:00 26.4 9.4 34 0.0 LegendMM LegendMM   100.63 27   LegendNANA
16:00 25.6 7.4 31 0.0 LegendMM LegendMM   100.64 26   LegendNANA
17:00 24.7 7.0 32 0.0 LegendMM LegendMM   100.62 25   LegendNANA
18:00 24.0 8.3 37 0.0 LegendMM LegendMM   100.59 25   LegendNANA
19:00 23.6 8.6 38 0.0 LegendMM LegendMM   100.60     LegendNANA
20:00 22.7 7.7 38 0.0 LegendMM LegendMM   100.64     LegendNANA
21:00                      
22:00                      
23:00                      

Notes on Data Quality.

Legend

  • E = Estimated
  • M = Missing
  • NA = Not Available*
  • [empty] = Indicates an unobserved value
Date modified: